Home > Weather > Cancún > Past weeks

Flag for Mexico Weather for the Past 2 Weeks in Cancún, Quintana Roo, Mexico

Now
77 °F

Scattered clouds.


Feels Like: 79 °F
Forecast: 70 / 77 °F
Wind: 14 mph from East

Location: Cancun International Airport

Current Time: Feb 14, 2016 at 12:11:33 PM

Latest Report: Feb 14, 2016 at 11:42 AM


Visibility: 7 mi

Pressure: 30.12 "Hg

Humidity: 54%

Dew point: 59 °F

Location of CancúnLocation

Historic Weather in Cancún — Graph

°F

Cancún Temperature Yesterday

Maximum temperature yesterday: 79 °F (at 2:45 PM)
Minimum temperature yesterday: 59 °F (at 2:40 AM)
Average temperature yesterday: 70 °F

High & Low Weather Summary for the Past Weeks

 TemperatureHumidityPressure
High84 °F (Feb 1, 10:40 AM)100% (Feb 4, 4:47 AM)30.31 "Hg (Feb 4, 4:47 AM)
Low54 °F (Feb 8, 4:47 AM)42% (Feb 12, 3:41 PM)29.87 "Hg (Feb 3, 2:45 PM)
Average72 °F78%30.10 "Hg
* Reported Jan 30 10:47 AM — Feb 14 10:46 AM, Cancún, Weather by CustomWeather, © 2016

Note: Actual official high and low records may vary slightly from our data, if they occured in-between our weather recording intervals... More about our weather records

Advertising

Cancún Weather History for the Previous 24 Hours

 ConditionsComfort  
Time TempWeatherWind HumidityBarometerVisibility
10:46 AM
Sun, Feb 14
79 °FScattered clouds.12 mph54%30.13 "Hg7 mi
9:45 AM75 °FScattered clouds.13 mph61%30.11 "Hg7 mi
8:40 AM73 °FPassing clouds.13 mph61%30.10 "Hg7 mi
6:45 AM70 °FPassing clouds.10 mph69%30.11 "Hg7 mi
5:46 AM70 °FPassing clouds.6 mph73%30.07 "Hg7 mi
4:47 AM70 °FPassing clouds.6 mph73%30.08 "Hg7 mi
3:48 AM70 °FPassing clouds.6 mph73%30.09 "Hg7 mi
12:45 AM72 °FClear.8 mph69%30.16 "Hg7 mi
11:46 PM
Sat, Feb 13
72 °FClear.8 mph69%30.18 "Hg7 mi
10:47 PM73 °FClear.7 mph65%30.19 "Hg7 mi
9:48 PM73 °FClear.6 mph61%30.19 "Hg7 mi
7:42 PM73 °FClear.10 mph61%30.15 "Hg7 mi
6:41 PM73 °FPassing clouds.7 mph61%30.16 "Hg7 mi
5:41 PM75 °FScattered clouds.9 mph57%30.15 "Hg7 mi
4:40 PM77 °FScattered clouds.8 mph54%30.16 "Hg7 mi
3:43 PM77 °FScattered clouds.12 mph54%30.15 "Hg7 mi
2:45 PM79 °FScattered clouds.14 mph54%30.18 "Hg7 mi
Weather by CustomWeather, © 2016

See weather overviewHow to use our weather pages